Regional Weather Roundup
Issued by NWS Columbia, SC

Home | Current Version | Previous Version | Text Only | Print | Product List | Glossary On
Versions: 1 2 3 4 5 6 7 8 9 10 11 12 13 14 15 16 17 18 19 20 21 22 23 24 25 26 27
000
ASUS42 KCAE 191110
RWRCAE
REGIONAL WEATHER ROUNDUP
NATIONAL WEATHER SERVICE COLUMBIA SC
700 AM EDT SAT APR 19 2014

NOTE: "FAIR" INDICATES FEW OR NO CLOUDS BELOW 12,000 FEET WITH NO
SIGNIFICANT WEATHER AND/OR OBSTRUCTIONS TO VISIBILITY.

NOT ALL STATIONS ARE QUALITY CONTROLLED BY THE NATIONAL
WEATHER SERVICE. USE DATA WITH CAUTION...ESPECIALLY
DEWPOINT OBSERVATIONS.

SCZ001>056-GAZ040-063>065-077-191200-
...UPSTATE SOUTH CAROLINA...

CITY           SKY/WX    TMP DP  RH WIND       PRES   REMARKS
ANDERSON       CLOUDY    51  49  92 NE14G24   30.09R
LIBERTY        CLOUDY    51  28  40 MISG      30.10R
SPARTANBURG    DRIZZLE   50  50 100 NE10      30.11R
CLEMSON        CLOUDY    54  49  83 NE12      30.11R
GREENVILLE     LGT RAIN  49  46  90 NE16      30.11R FOG
GREENWOOD      LGT RAIN  50  48  93 NE12      30.08R FOG
GREER          CLOUDY    49  47  93 NE14      30.10R
ROCK HILL      RAIN      48  47  96 NE10      30.11R FOG
CHESTER        MIX PCPN N/A N/A N/A N14G21    30.10R
LAURENS        LGT RAIN  50 N/A N/A NE12G21   30.10R


...CENTRAL SOUTH CAROLINA...

CITY           SKY/WX    TMP DP  RH WIND       PRES   REMARKS
COLUMBIA APT   LGT RAIN  53  51  93 N10       30.03R FOG
COLUMBIA OWENS LGT RAIN  52  49  89 VRB6      30.04S FOG
DARLINGTON     CLOUDY    54  48  82 N14G21    30.05R
FLORENCE       LGT RAIN  55  52  89 NE21      30.01R FOG
MCENTIRE ANGB  DRIZZLE   51  51 100 N8        30.02R FOG
ORANGEBURG     CLOUDY    53  50  89 N10       30.00R
SUMTER SHAW    LGT RAIN  54  52  94 N12       30.01R
NEWBERRY       LGT RAIN  50  50 100 NE17      30.09R
AIKEN          CLOUDY    52  52 100 NE17G24   30.04R
BARNWELL       CLOUDY    54  52  94 NE14G21   29.99S
MANNING        CLOUDY    55 N/A N/A N7        30.00R
CAMDEN         LGT RAIN  50  50 100 NE13      30.05R
LANCASTER      LGT RAIN  50  50 100 N10       30.08S
WINNSBORO      DRIZZLE   50  50 100 N13G20    30.04R


...EASTERN AND COASTAL SOUTH CAROLINA...

CITY           SKY/WX    TMP DP  RH WIND       PRES   REMARKS
MYRTLE BEACH   CLOUDY    55  55 100 NE10      29.98R
N MYRTLE BCH   LGT RAIN  57  55  93 NE13      29.97R FOG
CONWAY         DRIZZLE   55  55 100 NE12      29.98S
MARION         CLOUDY    54  52  94 NE13G25   30.01R
HARTSVILLE     CLOUDY    54  54 100 N10G18    30.04S
FLORENCE       LGT RAIN  55  52  89 NE21      30.01R FOG
DARLINGTON     CLOUDY    54  48  82 N14G21    30.05R
CHARLESTON APT LGT RAIN  59  57  93 N9        29.94S FOG
MOUNT PLEASANT CLOUDY   N/A N/A N/A NE5       29.93S HAZE
WALTERBORO     DRIZZLE   54 N/A N/A N8        29.97R
BEAUFORT       CLOUDY    58  56  93 NE12      29.93S FOG


...EASTERN GEORGIA...

CITY           SKY/WX    TMP DP  RH WIND       PRES   REMARKS
AUGUSTA BUSH F CLOUDY    53  49  86 N10       30.01R
AUGUSTA DANIEL LGT RAIN  53  51  93 N10       30.01R
THOMSON        CLOUDY    51  51 100 NE9G23    30.07R
WASHINGTON     CLOUDY    52 N/A N/A NE10G16   30.05R HAZE
CLAXTON        DRIZZLE  N/A N/A N/A NE7       29.95R
SYLVANIA       CLOUDY    56  53  91 NE10G17   29.97R FOG
STATESBORO     CLOUDY    54  54 100 NE9       29.95S FOG
SAVANNAH       CLOUDY    58  56  93 N8        29.93R FOG


...SOUTHERN NORTH CAROLINA...

CITY           SKY/WX    TMP DP  RH WIND       PRES   REMARKS
CHARLOTTE      RAIN      48  46  93 N13       30.12R FOG
MONROE         HVY RAIN  49  47  93 N16       30.09R FOG
WADESBORO      RAIN      50  49  97 N9        30.08S
ROCKINGHAM       N/A     51  50  96 NE8G16    30.05R
RUTHERFORDTON  LGT RAIN  47  45  91 N6        30.14R
ASHEVILLE      LGT RAIN  47  45  93 N8        30.14R

$$



USA.gov is the U.S. government's official web portal to all federal, state and local government web resources and services.